Powrót do katalogu

STARLINK-36034

AktywnyŁącznośćVLEO
NORAD 66609·PAYLOAD·🇺🇸 United States

Wystrzelony Nov 22, 2025 z Cape Canaveral Space Force Station

Loading…

Następne Przeloty (najbliższe 24 godziny)

TLE

ŚwieżeSource: CelesTrak SupGP

Epoka: Sep 15, 2026, 03:47 UTC

1 66609C 25270X   26258.15812500 -.00027802  00000+0 -10068-2 0  2583
2 66609  43.0044  66.5389 0001790 268.8588 254.5302 15.27598208    12

Śledź STARLINK-36034 w czasie rzeczywistym z AllMySat

Download on the App Store